Regional Weather Roundup
Issued by NWS Memphis, TN

Home | Current Version | Previous Version | Text Only | Print | Product List | Glossary On
Versions: 1 2 3 4 5 6 7 8 9 10 11 12 13 14 15 16 17 18 19 20 21 22 23 24 25 26 27 28 29 30 31 32 33 34 35 36 37 38 39 40 41 42 43 44 45 46 47 48 49 50
000
ASUS44 KMEG 190210
RWRMEG
MEMPHIS CWA HOURLY WEATHER ROUNDUP
NATIONAL WEATHER SERVICE MEMPHIS TN
900 PM CDT THU SEP 18 2014

...WEST TENNESSEE...

CITY           SKY/WX    TMP DP  RH WIND       PRES   REMARKS
MEMPHIS INTL   CLOUDY    74  65  73 E7        29.99R
NWS MEMPHIS      N/A     71 N/A N/A MISG        N/A
JACKSON        CLOUDY    70  64  81 NE6       30.00R
LEXINGTON      MOCLDY    66  61  82 CALM      30.00R
SAVANNAH       MOCLDY    68  68 100 CALM      29.99R
DYERSBURG      PTCLDY    64  54  68 CALM      30.02R
UNION CITY     CLEAR     61  59  94 CALM      30.01R
PARIS          CLEAR     59  57  94 CALM      30.03R
HUNTINGDON     MOCLDY    62  58  87 CALM      30.02R


...EASTERN ARKANSAS...

CITY           SKY/WX    TMP DP  RH WIND       PRES   REMARKS
JONESBORO      CLEAR     65  63  93 NE5       30.00R
WEST MEMPHIS   CLOUDY    73  67  81 NE7       29.98R
BATESVILLE     CLOUDY    68  61  77 CALM      30.02R
NEWPORT        CLOUDY    67  64  90 NE5       30.02R
WALNUT RIDGE   CLEAR     64  61  88 N3        30.01R
BLYTHEVILLE    MOCLDY    66  64  93 NE3       30.01R
SEARCY         MOCLDY    71  65  81 N13       30.00R
STUTTGART      PTCLDY    72  66  83 SE6       29.99R
PINE BLUFF     CLEAR     69  67  93 E6        29.96R
MONTICELLO     PTCLDY    72  68  87 E5        29.94R


...NORTH MISSISSIPPI...

CITY           SKY/WX    TMP DP  RH WIND       PRES   REMARKS
TUPELO         RAIN      68  66  93 CALM      30.00R FOG
OXFORD         CLOUDY    66  66 100 CALM      29.98F
OLIVE BRANCH   CLOUDY    70  70 100 NE6       30.00R
CLARKSDALE     MOCLDY    70  70 100 CALM      29.97S
CORINTH        CLOUDY    72  66  83 CALM      29.99R
GRENADA        CLOUDY    68  68 100 CALM      29.96S
GREENWOOD      CLOUDY    71  67  87 SW9       29.97R
COLUMBUS       CLOUDY    70  66  88 S9        29.98R
STARKVILLE     LGT RAIN  72  70  94 NE9       30.00R
GOLDEN TRIANGL CLOUDY    70  64  83 SW6       30.00F


...SOUTHEAST MISSOURI...

CITY           SKY/WX    TMP DP  RH WIND       PRES   REMARKS
WEST PLAINS    PTCLDY    59  57  93 CALM      30.06R FOG
POPLAR BLUFF   MOCLDY    66  59  78 N5        30.02R
CAPE GIRARDEAU PTCLDY    63  59  87 NE5       30.03R


...NORTHWEST ALABAMA...

CITY           SKY/WX    TMP DP  RH WIND       PRES   REMARKS
MUSCLE SHOALS  MOCLDY    72  65  78 CALM      29.99R


...MIDDLE TENNESSEE...

CITY           SKY/WX    TMP DP  RH WIND       PRES   REMARKS
NASHVILLE      PTCLDY    68  60  75 N6        30.03R
CLARKSVILLE    CLEAR     65  57  75 NE6       30.03R
DICKSON        CLEAR     61  57  88 CALM      30.02R
COLUMBIA       CLEAR     66  64  94 CALM      30.00R
LEWISBURG      PTCLDY    64  60  87 CALM      30.01R


...WESTERN KENTUCKY...

CITY           SKY/WX    TMP DP  RH WIND       PRES   REMARKS
PADUCAH        PTCLDY    69  58  67 NE6       30.03R
FORT CAMPBELL  CLEAR     63  59  87 NE7       30.03R


...CENTRAL ARKANSAS...

CITY           SKY/WX    TMP DP  RH WIND       PRES   REMARKS
LITTLE ROCK    PTCLDY    72  66  81 NE8       29.97R


SKY/WX REPORTED AS FAIR MEANS FEW OR NO CLOUDS BELOW
12 THOUSAND FEET.



USA.gov is the U.S. government's official web portal to all federal, state and local government web resources and services.